Fryeburg, ME

6:09 AM EDT on April 19, 2018 (GMT -0400)
Eastern Slopes Regional

Weather History for KIZG - October, 2012

Change the Weather History Date:

Tuesday, October 30, 2012

  Actual Average Record
Temperature  
Mean Temperature 62 °F -  
Max Temperature 64 °F 50 °F 66 °F (2005)
Min Temperature 59 °F 29 °F 18 °F (2002)
Degree Days  
Heating Degree Days 4    
Growing Degree Days 12 (Base 50)    
Moisture  
Dew Point 60 °F    
Average Humidity 96    
Maximum Humidity 100    
Minimum Humidity 90    
Precipitation  
Precipitation 0.24 in - - ()
Sea Level Pressure  
Sea Level Pressure 29.62 in    
Wind  
Wind Speed 7 mph (ESE)    
Max Wind Speed 12 mph    
Max Gust Speed -    
Visibility 7 miles    
Events Rain , Thunderstorm    
Averages and records for this station are not official NWS values.
T = Trace of Precipitation, MM = Missing Value Source: NWS Daily Summary

Daily Weather History Graph

Daily Weather History Graph

Search for Another Location

Airport or City:

Astronomy

Oct. 30, 2012 Rise Set
Actual Time 7:18 AM EDT 5:36 PM EDT
Civil Twilight 6:48 AM EDT 6:05 PM EDT
Nautical Twilight 6:14 AM EDT 6:39 PM EDT
Astronomical Twilight 5:40 AM EDT 7:13 PM EDT
Moon 6:00 PM EDT (10/30) 8:04 AM EDT (10/30)
Length of Visible Light 11h 17m
Length of Day
10h 17m
Full, 99% of the Moon is Illuminated
Oct 30
Full
Nov 6
Last Quarter
Nov 13
New
Nov 20
First Quarter
Nov 28
Full

Hourly Weather History & Observations

Time (EDT) Temp. Dew Point Humidity Pressure Visibility Wind Dir Wind Speed Gust Speed Precip Events Conditions
10:39 AM 60.8 °F 59.0 °F 94% 29.64 in 5.0 mi ESE 6.9 mph - N/A Rain Light Rain
10:54 AM 60.1 °F 59.0 °F 96% 29.65 in 6.0 mi East 8.1 mph - N/A Rain Light Rain
11:54 AM 61.0 °F 60.1 °F 97% 29.64 in 6.0 mi ESE 8.1 mph - 0.01 in Rain Light Rain
12:30 PM 62.6 °F 60.8 °F 94% 29.64 in 10.0 mi SE 5.8 mph - 0.01 in   Overcast
12:54 PM 64.0 °F 61.0 °F 90% 29.64 in 10.0 mi ESE 6.9 mph - 0.01 in   Overcast
1:54 PM 62.1 °F 60.1 °F 93% 29.65 in 9.0 mi ESE 8.1 mph - 0.00 in Rain Light Rain
2:29 PM 62.6 °F 60.8 °F 94% 29.64 in 5.0 mi East 6.9 mph - 0.02 in Rain Light Rain
2:43 PM 62.6 °F 60.8 °F 94% 29.64 in 5.0 mi East 5.8 mph - 0.03 in Rain Light Rain
2:54 PM 62.1 °F 60.1 °F 93% 29.65 in 7.0 mi ESE 6.9 mph - 0.03 in Rain Light Rain
3:15 PM 62.6 °F 60.8 °F 94% 29.64 in 10.0 mi ESE 9.2 mph - 0.00 in   Overcast
3:36 PM 62.6 °F 60.8 °F 94% 29.64 in 10.0 mi ESE 8.1 mph - 0.00 in   Overcast
3:41 PM 62.6 °F 60.8 °F 94% 29.63 in 10.0 mi East 6.9 mph - 0.00 in   Overcast
3:54 PM 62.1 °F 60.1 °F 93% 29.64 in 10.0 mi East 5.8 mph - 0.00 in   Overcast
4:11 PM 62.6 °F 60.8 °F 94% 29.63 in 10.0 mi ESE 3.5 mph - N/A   Overcast
4:54 PM 61.0 °F 59.0 °F 93% 29.63 in 9.0 mi East 5.8 mph - 0.00 in Rain Light Rain
5:54 PM 60.1 °F 59.0 °F 96% 29.62 in 8.0 mi East 3.5 mph - 0.02 in Rain Light Rain
6:54 PM 60.1 °F 60.1 °F 100% 29.62 in 5.0 mi East 5.8 mph - 0.01 in Rain Light Rain
7:54 PM 60.1 °F 60.1 °F 100% 29.61 in 6.0 mi East 6.9 mph - 0.02 in   Overcast
8:06 PM 60.8 °F 60.8 °F 100% 29.60 in 4.0 mi East 8.1 mph - 0.00 in Rain Light Rain
8:26 PM 60.8 °F 60.8 °F 100% 29.61 in 10.0 mi East 11.5 mph - 0.00 in   Overcast
8:54 PM 60.1 °F 59.0 °F 96% 29.61 in 10.0 mi East 9.2 mph - 0.01 in   Overcast
9:38 PM 60.8 °F 59.0 °F 94% 29.61 in 8.0 mi ESE 6.9 mph - 0.01 in Thunderstorm Overcast
9:54 PM 60.1 °F 59.0 °F 96% 29.60 in 9.0 mi East 4.6 mph - 0.05 in   Overcast
10:21 PM 59.0 °F 59.0 °F 100% 29.60 in 7.0 mi SE 5.8 mph - 0.05 in Rain , Thunderstorm Light Rain
10:32 PM 60.8 °F 59.0 °F 94% 29.60 in 10.0 mi SSE 5.8 mph - 0.05 in Thunderstorm Overcast
10:54 PM 60.1 °F 59.0 °F 96% 29.60 in 6.0 mi ESE 5.8 mph - 0.08 in Rain Light Rain
11:14 PM 59.0 °F 59.0 °F 100% 29.59 in 3.0 mi SSE 3.5 mph - 0.00 in   Overcast
11:21 PM 59.0 °F 59.0 °F 100% 29.58 in 2.0 mi ESE 3.5 mph - 0.00 in Rain Light Rain
11:32 PM 59.0 °F 59.0 °F 100% 29.58 in 1.8 mi Calm Calm - 0.00 in Rain Light Rain
11:54 PM 59.0 °F 59.0 °F 100% 29.58 in 1.5 mi ESE 4.6 mph - 0.00 in   Overcast